TimeEST,TemperatureF,Dew PointF,Humidity,Sea Level PressureIn,VisibilityMPH,Wind Direction,Wind SpeedMPH,Gust SpeedMPH,PrecipitationIn,Events,Conditions,WindDirDegrees,DateUTC
12:14 AM,26.4,12.9,57,29.99,10.0,NW,3.5,-,N/A,,Overcast,320,2013-02-06 05:14:00
12:33 AM,26.2,13.5,59,30.00,10.0,WNW,4.6,-,N/A,,Overcast,300,2013-02-06 05:33:00
12:54 AM,26.2,13.3,58,30.01,10.0,West,5.8,-,N/A,,Overcast,280,2013-02-06 05:54:00
1:13 AM,26.1,13.8,60,30.01,10.0,West,4.6,-,N/A,,Overcast,280,2013-02-06 06:13:00
1:34 AM,25.3,14.0,62,30.01,10.0,West,5.8,-,N/A,,Overcast,280,2013-02-06 06:34:00
1:54 AM,25.2,14.0,63,30.03,10.0,West,6.9,-,N/A,,Overcast,280,2013-02-06 06:54:00
2:14 AM,24.6,14.9,67,30.04,10.0,WNW,5.8,-,N/A,,Overcast,290,2013-02-06 07:14:00
2:34 AM,24.8,15.4,68,30.05,10.0,West,5.8,-,N/A,,Overcast,280,2013-02-06 07:34:00
2:54 AM,24.3,15.4,69,30.06,10.0,West,5.8,-,N/A,,Mostly Cloudy,280,2013-02-06 07:54:00
3:14 AM,22.1,14.4,72,30.06,10.0,West,5.8,-,N/A,,Mostly Cloudy,270,2013-02-06 08:14:00
3:33 AM,19.4,13.6,78,30.06,7.0,West,4.6,-,N/A,,Scattered Clouds,260,2013-02-06 08:33:00
3:54 AM,17.6,12.6,81,30.07,10.0,West,3.5,-,N/A,,Clear,260,2013-02-06 08:54:00
4:13 AM,19.0,14.5,83,30.08,7.0,WSW,4.6,-,N/A,,Clear,250,2013-02-06 09:13:00
4:34 AM,17.2,13.1,84,30.09,10.0,WSW,4.6,-,N/A,,Clear,250,2013-02-06 09:34:00
4:54 AM,15.8,11.5,83,30.11,10.0,WSW,4.6,-,N/A,,Clear,250,2013-02-06 09:54:00
5:14 AM,16.7,12.4,83,30.12,7.0,Calm,Calm,-,N/A,,Clear,0,2013-02-06 10:14:00
5:33 AM,17.1,12.9,84,30.12,5.0,Calm,Calm,-,N/A,,Clear,0,2013-02-06 10:33:00
5:54 AM,15.4,11.1,83,30.12,0.8,Calm,Calm,-,N/A,,Scattered Clouds,0,2013-02-06 10:54:00
6:13 AM,14.2,9.5,82,30.13,0.8,Calm,Calm,-,N/A,Snow,Light Snow,0,2013-02-06 11:13:00
6:34 AM,14.7,9.9,81,30.14,7.0,Calm,Calm,-,N/A,,Clear,0,2013-02-06 11:34:00
6:53 AM,14.2,9.7,82,30.14,0.5,Calm,Calm,-,N/A,Fog,Light Freezing Fog,0,2013-02-06 11:53:00
7:14 AM,11.7,6.3,79,30.15,7.0,Calm,Calm,-,N/A,,Scattered Clouds,0,2013-02-06 12:14:00
7:33 AM,12.2,7.2,80,30.16,0.2,Calm,Calm,-,N/A,,Haze,0,2013-02-06 12:33:00
7:54 AM,10.2,4.5,78,30.17,7.0,Calm,Calm,-,N/A,,Scattered Clouds,0,2013-02-06 12:54:00
8:13 AM,10.6,5.0,78,30.18,4.0,SSW,3.5,-,N/A,,Haze,200,2013-02-06 13:13:00
8:34 AM,11.5,6.1,79,30.19,0.2,Calm,Calm,-,N/A,,Haze,0,2013-02-06 13:34:00
8:53 AM,12.7,7.5,80,30.19,2.5,Calm,Calm,-,N/A,,Haze,0,2013-02-06 13:53:00
9:14 AM,13.8,8.6,80,30.19,4.0,SSE,4.6,-,N/A,,Haze,160,2013-02-06 14:14:00
9:33 AM,15.4,10.6,81,30.19,4.0,South,3.5,-,N/A,,Haze,170,2013-02-06 14:33:00
9:54 AM,16.9,12.2,82,30.20,7.0,South,4.6,-,N/A,,Clear,180,2013-02-06 14:54:00
10:13 AM,20.1,16.0,84,30.21,7.0,Calm,Calm,-,N/A,,Clear,0,2013-02-06 15:13:00
10:34 AM,22.5,18.3,84,30.23,7.0,SSW,3.5,-,N/A,,Scattered Clouds,210,2013-02-06 15:34:00
10:54 AM,24.1,19.9,84,30.23,10.0,SSW,3.5,-,N/A,,Overcast,200,2013-02-06 15:54:00
11:34 AM,26.4,22.3,84,30.23,10.0,South,4.6,-,N/A,,Scattered Clouds,190,2013-02-06 16:34:00
11:53 AM,27.7,20.7,75,30.23,10.0,South,4.6,-,N/A,,Clear,170,2013-02-06 16:53:00
12:14 PM,29.7,17.2,60,30.24,10.0,SSW,4.6,-,N/A,,Clear,200,2013-02-06 17:14:00
12:33 PM,30.2,16.0,56,30.24,10.0,SSW,4.6,-,N/A,,Clear,200,2013-02-06 17:33:00
12:54 PM,30.9,15.4,53,30.23,10.0,SSW,4.6,-,N/A,,Clear,210,2013-02-06 17:54:00
1:14 PM,31.8,16.7,54,30.23,10.0,SSW,4.6,-,N/A,,Clear,200,2013-02-06 18:14:00
1:34 PM,31.6,16.0,52,30.22,10.0,SSW,3.5,-,N/A,,Clear,200,2013-02-06 18:34:00
1:54 PM,32.0,15.8,51,30.21,10.0,SSE,5.8,-,N/A,,Clear,160,2013-02-06 18:54:00
2:14 PM,32.4,16.7,53,30.21,10.0,South,6.9,-,N/A,,Clear,190,2013-02-06 19:14:00
2:34 PM,32.7,16.5,51,30.20,10.0,South,3.5,-,N/A,,Clear,190,2013-02-06 19:34:00
2:54 PM,32.4,16.3,52,30.19,10.0,SE,4.6,-,N/A,,Clear,140,2013-02-06 19:54:00
3:14 PM,32.5,16.5,52,30.18,10.0,SE,4.6,-,N/A,,Clear,140,2013-02-06 20:14:00
3:34 PM,32.5,16.9,53,30.18,10.0,SE,4.6,-,N/A,,Clear,140,2013-02-06 20:34:00
3:54 PM,32.9,16.3,51,30.19,10.0,SSE,3.5,-,N/A,,Clear,160,2013-02-06 20:54:00
4:14 PM,33.4,15.8,48,30.20,10.0,Calm,Calm,-,N/A,,Clear,0,2013-02-06 21:14:00
4:33 PM,34.7,14.9,44,30.20,10.0,Calm,Calm,-,N/A,,Clear,0,2013-02-06 21:33:00
4:54 PM,33.4,14.9,47,30.20,10.0,Calm,Calm,-,N/A,,Clear,0,2013-02-06 21:54:00
5:14 PM,33.4,15.1,47,30.20,10.0,Calm,Calm,-,N/A,,Scattered Clouds,0,2013-02-06 22:14:00
5:54 PM,32.2,16.2,52,30.21,10.0,Calm,Calm,-,N/A,,Scattered Clouds,0,2013-02-06 22:54:00
6:14 PM,30.9,17.1,57,30.21,10.0,ESE,3.5,-,N/A,,Mostly Cloudy,110,2013-02-06 23:14:00
6:34 PM,29.5,18.1,63,30.21,10.0,East,5.8,-,N/A,,Overcast,100,2013-02-06 23:34:00
6:54 PM,30.2,17.8,60,30.21,10.0,ESE,3.5,-,N/A,,Mostly Cloudy,120,2013-02-06 23:54:00
7:13 PM,30.0,17.1,59,30.21,10.0,SE,4.6,-,N/A,,Scattered Clouds,130,2013-02-07 00:13:00
7:34 PM,27.9,17.2,64,30.20,10.0,SSE,5.8,-,N/A,,Scattered Clouds,150,2013-02-07 00:34:00
7:53 PM,26.8,17.4,68,30.20,10.0,SE,5.8,-,N/A,,Mostly Cloudy,140,2013-02-07 00:53:00
8:14 PM,29.3,19.0,66,30.20,10.0,SSE,5.8,-,N/A,,Overcast,160,2013-02-07 01:14:00
8:33 PM,31.1,18.0,58,30.20,10.0,South,3.5,-,N/A,,Overcast,170,2013-02-07 01:33:00
8:54 PM,30.6,19.0,62,30.19,10.0,SSE,5.8,-,N/A,,Overcast,150,2013-02-07 01:54:00
9:13 PM,31.1,20.3,64,30.18,10.0,SSE,5.8,-,N/A,,Overcast,150,2013-02-07 02:13:00
9:34 PM,31.6,20.5,63,30.18,10.0,SSE,9.2,-,N/A,,Overcast,160,2013-02-07 02:34:00
9:53 PM,31.8,20.1,62,30.19,10.0,SSE,6.9,-,N/A,,Overcast,160,2013-02-07 02:53:00
10:14 PM,31.6,19.8,62,30.19,10.0,SSE,10.4,-,N/A,,Overcast,160,2013-02-07 03:14:00
10:33 PM,31.5,19.2,61,30.20,10.0,SSE,9.2,-,N/A,,Overcast,160,2013-02-07 03:33:00
10:54 PM,31.1,19.4,62,30.19,10.0,SSE,8.1,-,N/A,,Overcast,150,2013-02-07 03:54:00
11:13 PM,30.9,18.9,61,30.19,10.0,SSE,8.1,-,N/A,,Overcast,160,2013-02-07 04:13:00
11:34 PM,30.6,19.6,64,30.18,10.0,SSE,9.2,-,N/A,,Overcast,150,2013-02-07 04:34:00
11:54 PM,30.6,19.4,63,30.18,10.0,SSE,6.9,-,N/A,,Overcast,150,2013-02-07 04:54:00